Terminal Aerodrome Forecast
Issued by NWS

Home | Current Version | Previous Version | Text Only | Print | Product List | Glossary On
Versions: 1 2 3 4 5 6 7 8 9 10 11 12 13 14 15
000
FTUS43 KJKL 281400 AAB
TAFSME
TAF AMD
KSME 281404Z 2814/2912 00000KT 4SM BR BKN002
     FM281430 VRB03KT P6SM SCT035
     FM281700 VRB03KT P6SM VCTS SCT040CB
     FM290200 VRB03KT 5SM BR FEW030=

USA.gov is the U.S. government's official web portal to all federal, state and local government web resources and services.